Taunton, MA

5:03 PM EDT on March 30, 2017 (GMT -0400)
Taunton Municipal

Weather History for KTAN - September, 2012

Change the Weather History Date:

Sunday, September 2, 2012

  Actual Average Record
Temperature  
Mean Temperature 66 °F -  
Max Temperature 80 °F 78 °F 98 °F (1953)
Min Temperature 53 °F 55 °F 41 °F (1991)
Cooling Degree Days 1    
Growing Degree Days 16 (Base 50)    
Moisture  
Dew Point 54 °F    
Average Humidity 74    
Maximum Humidity 96    
Minimum Humidity 38    
Precipitation  
Precipitation 0.00 in - - ()
Sea Level Pressure  
Sea Level Pressure 30.10 in    
Wind  
Wind Speed 2 mph (SSE)    
Max Wind Speed 8 mph    
Max Gust Speed -    
Visibility 8 miles    
Events      
Averages and records for this station are not official NWS values.
T = Trace of Precipitation, MM = Missing Value Source: NWS Daily Summary

Daily Weather History Graph

Daily Weather History Graph

Search for Another Location

Airport or City:

Trip Planner

Search our weather history database for the weather conditions in past years. The results will help you decide how hot, cold, wet, or windy it might be!

Date:

Astronomy

Sep. 02, 2012 Rise Set
Actual Time 6:11 AM EDT 7:15 PM EDT
Civil Twilight 5:42 AM EDT 7:43 PM EDT
Nautical Twilight 5:08 AM EDT 8:17 PM EDT
Astronomical Twilight 4:32 AM EDT 8:53 PM EDT
Moon 7:57 PM EDT (9/2) 8:19 AM EDT (9/2)
Length of Visible Light 14h 00m
Length of Day
13h 03m
Waning Gibbous, 95% of the Moon is Illuminated
Sep 2
Waning Gibbous
Sep 8
Last Quarter
Sep 15
New
Sep 22
First Quarter
Sep 29
Full

Hourly Weather History & Observations

Time (EDT) Temp. Dew Point Humidity Pressure Visibility Wind Dir Wind Speed Gust Speed Precip Events Conditions
12:52 AM 55.9 °F 54.0 °F 93% 30.11 in 10.0 mi Calm Calm - N/A   Scattered Clouds
1:52 AM 57.9 °F 55.9 °F 93% 30.10 in 10.0 mi Calm Calm - N/A   Overcast
2:52 AM 60.1 °F 57.0 °F 90% 30.10 in 10.0 mi Calm Calm - N/A   Overcast
3:52 AM 60.1 °F 57.0 °F 90% 30.09 in 10.0 mi NE 3.5 mph - N/A   Overcast
4:52 AM 57.9 °F 55.9 °F 93% 30.09 in 10.0 mi Calm Calm - N/A   Scattered Clouds
5:52 AM 55.0 °F 53.1 °F 93% 30.10 in 9.0 mi Calm Calm - N/A   Scattered Clouds
7:52 AM 63.0 °F 57.9 °F 84% 30.11 in 10.0 mi Calm Calm - N/A   Clear
9:52 AM 71.1 °F 57.9 °F 63% 30.10 in 10.0 mi SE 5.8 mph - N/A   Mostly Cloudy
10:52 AM 73.9 °F 55.9 °F 53% 30.10 in 10.0 mi SW 4.6 mph - N/A   Mostly Cloudy
11:52 AM 75.9 °F 55.0 °F 48% 30.08 in 10.0 mi SSW 3.5 mph - N/A   Mostly Cloudy
12:52 PM 77.0 °F 51.1 °F 40% 30.08 in 10.0 mi Variable 5.8 mph - N/A   Overcast
1:52 PM 75.9 °F 53.1 °F 45% 30.07 in 10.0 mi SSW 4.6 mph - N/A   Scattered Clouds
2:52 PM 79.0 °F 51.1 °F 38% 30.06 in 10.0 mi South 6.9 mph - N/A   Mostly Cloudy
3:52 PM 79.0 °F 53.1 °F 40% 30.04 in 10.0 mi South 4.6 mph - N/A   Clear
4:52 PM 79.0 °F 54.0 °F 42% 30.04 in 10.0 mi Variable 3.5 mph - N/A   Clear
5:52 PM 73.9 °F 48.9 °F 41% 30.06 in 10.0 mi ESE 8.1 mph - N/A   Overcast
6:52 PM 69.1 °F 57.9 °F 68% 30.07 in 10.0 mi Calm Calm - N/A   Overcast
7:52 PM 66.0 °F 59.0 °F 78% 30.10 in 10.0 mi Calm Calm - N/A   Overcast
8:52 PM 63.0 °F 55.0 °F 75% 30.12 in 10.0 mi NNE 3.5 mph - N/A   Clear
9:52 PM 57.0 °F 54.0 °F 89% 30.12 in 10.0 mi Calm Calm - N/A   Clear
10:52 PM 55.0 °F 52.0 °F 89% 30.14 in 10.0 mi Calm Calm - N/A   Clear
11:08 PM 55.0 °F 53.1 °F 93% 30.13 in 1.8 mi Calm Calm - N/A   Clear
11:20 PM 54.0 °F 52.0 °F 93% 30.14 in 0.8 mi Calm Calm - N/A   Clear
11:27 PM 54.0 °F 52.0 °F 93% 30.14 in 1.8 mi Calm Calm - N/A   Clear
11:29 PM 53.1 °F 52.0 °F 96% 30.14 in 3.0 mi Calm Calm - N/A   Clear
11:48 PM 53.6 °F 51.8 °F 94% 30.14 in 1.8 mi Calm Calm - N/A   Clear
11:52 PM 54.0 °F 52.0 °F 93% 30.14 in 1.2 mi Calm Calm - N/A   Clear